Wind_Speed
31 29 26 26 23 21 19 17 16 15 14 13 12 11 13 15 17 18 18 18 18 18 18 17 16 15 14 14 13 14 13 12 12 11 11 11 11 12 12 13 12 12 12 12 12 11 9 11 11 10 12 12 13 13 13 11 10 10 11 14 16 17 16 16 15 15 16 17 17 16 16 16 16 17 17 18 18 18 17 17 17 15 16 17 18
34 30 27 26 24 22 20 18 17 15 14 13 12 12 13 14 16 18 18 18 18 17 16 16 15 14 14 14 13 13 13 12 12 11 11 11 11 11 11 11 11 10 10 10 10 10 9 11 11 10 10 11 13 13 13 11 10 11 12 14 16 17 16 15 15 14 15 16 16 16 15 15 16 16 16 17 17 18 17 17 17 16 17 18 18
34 29 28 27 25 23 20 19 17 16 15 14 13 12 13 14 16 17 18 17 17 16 16 15 14 14 14 13 13 13 13 12 12 11 11 10 10 11 11 11 10 9 9 8 8 8 9 10 11 11 10 11 13 13 13 12 11 12 12 14 15 16 16 15 15 14 14 14 15 15 15 15 15 15 15 16 16 17 17 17 17 18 19 19 19
33 29 28 27 24 23 21 19 18 17 16 14 13 12 13 14 15 16 16 16 16 16 15 15 14 14 13 13 12 13 12 12 12 12 12 11 11 11 11 10 10 9 8 7 7 7 8 9 11 12 11 10 12 14 12 12 12 13 13 13 14 15 15 15 15 15 14 14 13 14 15 15 15 14 14 15 16 17 17 16 17 18 19 20 20
33 29 28 28 25 23 21 20 19 18 16 15 13 13 12 13 14 15 15 15 15 15 14 14 13 13 13 13 12 12 11 11 12 11 11 11 11 11 10 10 9 8 8 7 7 6 6 8 10 12 12 11 12 14 12 12 14 14 13 13 13 13 14 14 14 14 14 14 13 13 14 14 15 14 14 15 15 16 16 16 17 17 18 20 20
32 29 28 28 26 23 22 21 19 18 17 16 15 13 13 13 14 14 14 14 14 14 14 13 13 13 13 12 12 11 11 11 11 11 11 11 11 11 11 10 9 8 7 7 7 6 6 6 9 12 12 11 11 13 12 13 15 15 14 12 12 12 12 13 13 14 13 13 13 13 14 14 15 14 13 14 14 15 16 16 17 17 18 20 20
32 30 29 28 26 24 22 21 20 19 18 16 15 14 13 13 14 14 14 14 14 13 13 13 12 12 12 12 11 11 10 10 10 10 10 10 11 11 11 10 9 8 7 8 8 7 7 5 7 11 12 12 11 12 13 14 15 15 14 12 11 11 11 12 12 13 13 13 13 13 13 13 14 13 13 13 13 13 15 16 16 17 18 19 20
31 30 29 28 26 24 22 22 21 20 18 17 15 14 14 13 14 14 14 14 13 12 12 12 12 11 11 11 11 10 10 9 9 9 9 10 10 10 11 10 9 8 7 7 8 8 7 6 5 8 11 11 11 12 13 14 15 15 13 12 11 10 10 10 11 12 12 13 13 13 12 13 13 13 12 12 12 12 14 15 16 16 17 18 19
30 29 29 28 26 24 22 22 21 19 18 17 16 15 14 13 13 14 14 13 12 12 11 11 11 11 11 10 10 9 9 9 8 8 8 8 8 8 9 9 9 9 8 7 6 6 7 6 5 6 9 11 12 12 13 15 15 14 13 12 11 10 9 9 9 10 11 12 12 13 12 12 12 12 11 10 11 12 13 14 15 16 16 17 18
29 28 29 28 26 24 22 21 21 20 19 17 16 15 14 14 14 14 14 13 12 11 11 11 11 11 11 10 9 8 8 8 8 8 8 7 8 8 8 8 8 8 8 7 5 5 5 5 5 3 7 11 12 13 14 15 16 15 13 12 11 11 9 8 8 9 10 11 11 12 12 11 10 10 10 9 10 11 12 12 14 15 16 16 17
28 28 28 26 25 23 22 21 21 20 19 18 16 15 15 15 15 14 13 12 11 11 11 11 11 10 10 9 8 8 8 8 8 8 8 8 8 8 8 9 8 7 7 6 5 4 4 4 4 3 3 8 10 12 13 16 16 15 13 12 12 11 11 9 8 8 9 10 10 10 11 10 9 9 10 9 9 9 10 12 13 14 15 15 16
27 27 26 25 24 22 22 21 21 21 19 18 16 15 15 16 15 14 13 12 11 11 11 11 10 10 9 9 9 10 9 9 9 8 8 8 8 8 8 8 8 7 6 5 5 4 4 3 3 3 1 4 7 9 12 16 16 15 14 13 13 12 11 10 8 7 8 8 8 9 9 9 8 8 9 9 8 8 9 11 12 13 14 15 15
27 26 25 24 23 22 22 21 21 20 19 18 17 15 14 15 15 15 13 11 10 11 11 11 10 10 10 11 11 11 10 9 9 9 9 9 9 8 8 8 7 7 6 5 5 5 5 3 1 2 2 2 5 7 10 16 15 14 14 12 13 12 11 10 8 7 6 6 6 7 8 7 7 8 8 8 8 8 8 10 11 12 13 14 14
27 25 24 23 23 22 21 20 20 20 19 19 17 14 12 13 13 14 13 12 11 11 11 10 10 11 12 11 11 10 10 10 9 9 9 9 8 8 7 7 7 7 6 5 4 4 4 3 2 2 2 3 5 6 8 14 14 13 13 12 11 11 10 9 7 7 5 5 5 5 6 6 6 7 8 8 7 8 8 9 10 10 12 13 13
27 25 23 22 22 21 20 19 20 20 19 18 16 14 13 12 12 13 13 12 11 11 11 11 12 12 12 11 11 10 9 10 9 9 8 8 8 7 6 7 7 6 5 5 4 3 3 3 3 4 3 3 5 6 6 10 13 12 11 11 10 10 9 9 7 7 6 4 4 4 4 5 5 6 7 7 6 7 8 8 8 10 11 11 12
25 24 22 22 21 20 20 19 18 18 18 17 16 16 15 12 12 13 13 13 11 11 11 12 13 13 12 11 10 9 9 9 9 8 8 7 7 7 6 6 6 5 5 6 5 3 3 4 4 5 5 5 5 6 7 7 11 11 11 10 9 8 8 8 7 7 6 5 4 3 3 4 4 5 6 7 6 5 6 7 7 8 10 10 11
24 23 22 21 20 20 20 19 17 17 17 18 17 17 15 14 13 12 12 13 12 12 12 13 14 13 12 11 10 9 9 9 8 7 7 7 6 6 5 5 5 5 6 7 6 4 2 3 5 6 7 7 8 8 8 7 8 10 11 11 9 8 7 7 7 7 6 5 4 3 3 3 4 4 5 6 6 4 4 5 6 7 8 10 10
23 22 20 19 19 18 19 18 17 18 18 18 17 17 17 16 14 12 12 12 13 14 14 14 14 13 11 10 9 8 8 8 7 7 6 6 6 5 5 5 5 6 6 6 5 4 2 2 5 7 8 10 10 10 9 8 8 9 10 11 10 8 7 6 6 7 6 5 4 3 2 2 2 3 4 5 6 5 4 4 5 5 7 8 9
20 18 18 18 18 17 18 18 18 19 18 18 17 17 18 18 16 14 13 13 14 15 15 15 14 12 10 9 8 8 8 8 7 6 5 5 5 5 5 5 5 5 6 5 4 4 3 2 4 6 8 10 11 11 10 9 9 10 10 10 9 8 7 6 6 6 6 6 4 3 2 1 1 2 3 4 5 5 4 4 4 5 5 6 7
18 17 17 17 18 17 17 17 18 18 16 18 18 18 18 18 17 14 14 14 15 15 15 15 13 12 10 9 7 7 8 8 7 6 5 5 5 5 4 4 4 5 5 5 5 4 3 2 3 5 6 8 11 12 11 9 8 9 10 10 9 8 8 7 7 7 6 5 4 3 2 0 1 1 3 4 4 4 4 3 4 4 4 5 6
16 17 18 17 19 18 17 17 18 16 15 17 18 18 17 18 17 16 15 16 16 16 15 14 13 12 10 9 7 6 7 7 6 5 5 4 4 4 4 4 4 4 5 5 5 4 4 3 2 4 6 7 10 12 12 9 7 6 8 9 10 9 8 8 8 7 6 5 4 3 1 0 1 1 2 3 3 4 4 3 3 4 3 3 5
16 17 18 18 19 18 16 17 17 16 16 17 18 17 17 18 17 17 16 16 16 15 15 14 13 12 10 9 7 6 6 6 5 5 5 4 4 4 3 4 5 4 4 4 4 5 4 3 2 3 5 6 9 12 12 10 8 5 6 8 9 9 9 9 8 7 6 4 4 2 1 0 1 2 1 3 3 3 4 3 3 3 3 3 3
20 19 18 17 16 16 16 17 17 17 17 18 19 18 17 17 17 16 16 15 15 15 14 14 13 11 10 9 8 7 6 6 5 5 4 4 4 3 3 3 4 4 4 3 3 4 4 3 2 3 5 5 7 12 13 11 9 6 6 8 9 9 9 8 7 6 5 4 3 3 2 1 1 2 2 3 4 3 3 3 3 3 3 3 3
25 22 20 18 17 16 17 18 18 18 19 19 19 18 18 18 18 17 16 16 15 15 14 13 12 11 10 9 8 7 7 6 5 4 4 4 4 3 2 2 2 3 3 3 2 2 3 4 3 3 4 4 6 10 13 12 10 7 6 7 8 9 9 8 7 6 5 4 3 3 2 1 1 3 3 4 5 4 3 3 3 4 4 3 3
27 24 22 23 19 17 18 19 18 18 19 19 19 19 19 19 19 18 17 16 15 14 13 12 11 10 9 8 8 7 6 6 5 4 3 4 4 3 2 2 2 2 3 3 2 2 3 3 3 4 4 5 5 8 13 13 10 8 7 7 8 9 8 7 6 6 5 4 4 3 3 2 1 4 4 4 5 5 4 3 3 4 3 3 3
27 24 24 25 22 19 19 19 19 18 18 19 19 19 18 18 18 17 16 15 14 13 12 12 11 10 9 8 8 7 6 6 6 4 3 3 3 3 2 2 2 2 3 2 2 2 2 3 4 4 4 4 5 7 12 13 11 9 7 7 8 9 7 6 6 5 4 4 5 4 4 3 2 4 4 4 4 4 4 3 3 3 3 3 3
27 24 24 25 23 20 18 18 18 18 18 18 18 17 17 16 16 15 14 13 12 12 11 11 10 9 8 8 8 7 7 6 6 5 4 3 2 2 3 3 2 3 3 2 2 2 3 3 4 5 4 4 4 6 11 12 11 9 9 9 8 9 8 6 6 5 4 4 4 5 5 5 4 4 4 3 3 3 3 3 3 2 2 2 2
26 25 24 24 22 20 17 17 18 18 19 18 17 16 16 16 15 14 13 11 11 10 10 9 9 8 7 7 7 7 8 7 7 7 6 4 2 2 2 4 4 4 3 2 1 2 3 3 4 4 4 3 3 5 10 11 10 8 8 10 8 7 6 5 5 5 5 4 3 4 5 6 6 6 5 3 3 3 2 2 2 2 1 1 1
25 25 24 24 23 21 19 19 18 18 18 18 17 15 14 14 13 12 11 9 9 9 9 9 8 8 7 6 5 6 7 8 8 8 7 5 3 2 3 4 5 4 4 2 2 3 3 4 4 5 5 4 3 4 9 11 8 5 4 6 6 6 6 5 3 4 5 4 3 3 4 5 6 7 6 5 4 4 3 2 2 1 1 1 1
25 24 24 24 23 22 21 19 19 18 18 17 16 14 13 13 12 10 9 8 8 8 8 9 8 7 7 6 6 7 8 9 9 9 8 7 5 4 3 4 5 5 5 3 3 3 4 4 5 7 7 5 3 3 8 11 8 5 3 2 3 5 6 6 5 5 6 5 3 2 3 4 5 6 7 6 5 4 4 3 2 1 2 1 1
24 24 24 24 23 21 21 20 19 18 17 15 14 13 12 12 11 10 10 9 8 8 8 7 7 7 7 8 8 9 10 10 10 9 8 7 7 5 4 4 5 6 6 4 3 3 4 5 7 8 8 6 4 3 5 9 9 5 4 4 4 5 6 7 7 7 8 6 4 2 3 4 5 6 6 7 6 5 4 4 4 3 3 3 3
23 24 24 23 22 21 21 20 19 17 15 14 13 13 12 11 10 10 10 10 9 9 8 7 7 7 8 9 10 10 10 10 10 9 8 9 8 7 5 4 5 6 7 5 4 3 3 5 8 10 8 6 5 5 5 8 9 6 4 4 3 1 1 2 3 4 6 6 5 3 3 3 5 6 7 8 8 8 6 5 4 5 5 5 5
20 21 21 21 21 21 21 19 18 16 15 14 14 13 11 10 9 9 10 9 9 9 8 7 8 9 9 9 10 10 10 11 11 10 10 9 8 7 6 4 5 6 7 7 5 4 4 5 8 10 9 7 6 7 8 8 9 7 5 4 2 1 0 2 2 2 3 1 3 5 3 3 3 5 6 7 7 8 8 7 6 5 5 6 6
19 19 18 19 20 20 20 19 17 16 15 14 14 13 11 11 10 10 10 9 8 8 8 8 9 9 8 9 9 9 9 11 11 11 11 9 9 9 6 5 5 6 8 7 6 5 5 5 7 10 9 7 6 7 8 8 8 7 5 4 4 3 2 3 4 3 4 4 0 4 5 4 3 4 4 5 5 5 5 6 6 5 4 5 6
21 19 17 17 18 19 19 18 17 16 15 14 13 12 11 11 11 11 10 9 8 7 7 8 9 9 8 8 9 8 9 10 11 11 11 9 9 8 7 6 5 7 8 8 7 7 7 6 6 9 8 5 6 6 6 7 7 6 6 5 5 4 4 4 5 5 4 5 5 4 5 6 5 4 4 4 3 3 3 3 3 3 3 4 5
19 18 17 15 16 19 19 17 17 16 14 13 13 13 12 12 12 11 10 9 8 7 8 8 9 10 10 10 10 10 9 8 9 10 10 9 8 8 7 6 6 7 9 9 7 7 7 8 7 9 8 5 5 5 5 6 6 6 6 6 5 5 6 6 6 6 6 7 7 6 5 7 7 6 5 4 2 1 1 2 3 3 2 2 3
17 17 18 16 16 17 17 17 17 15 14 14 15 14 13 12 11 10 9 8 7 7 8 9 10 11 12 12 12 11 10 7 7 8 9 9 10 9 8 7 7 8 10 9 8 7 8 9 9 9 7 6 6 6 5 5 4 5 5 5 5 5 5 5 5 5 6 7 8 7 6 6 8 7 6 6 5 3 4 5 6 6 6 5 4
18 18 18 17 18 18 17 18 17 16 16 16 16 15 13 11 10 8 7 6 6 6 6 7 7 7 7 9 9 10 9 6 6 7 8 9 9 8 7 8 8 8 9 8 8 7 8 9 10 9 7 7 8 7 6 4 3 4 4 3 3 3 3 3 5 4 5 7 8 9 8 7 8 8 9 9 8 7 6 7 8 9 9 9 8
21 22 19 16 20 21 19 20 19 18 18 17 16 14 12 11 9 7 6 5 4 4 4 3 2 2 2 3 5 6 7 5 5 6 7 8 8 7 7 9 9 9 9 8 8 8 8 8 9 9 8 8 8 7 6 5 5 5 5 3 2 2 2 3 5 5 5 5 5 5 6 7 6 8 9 10 10 10 7 8 9 10 10 10 10
24 26 22 17 21 23 23 23 21 20 19 17 16 14 12 11 9 7 5 5 5 5 4 2 2 1 0 0 2 3 4 5 5 6 7 8 8 8 8 10 10 10 10 9 9 9 9 8 8 8 8 7 7 7 7 6 6 5 4 3 2 2 3 3 2 3 3 4 3 2 3 4 4 4 5 7 8 8 8 9 10 11 11 11 11
25 27 25 24 24 24 24 23 21 21 20 17 15 13 10 9 8 7 6 6 6 5 4 2 2 2 0 1 2 1 2 3 4 5 6 7 8 8 8 10 10 10 11 11 10 10 10 10 9 10 9 7 8 8 8 7 6 4 3 3 2 1 1 1 1 2 2 2 1 1 1 2 3 4 4 5 7 8 9 9 9 10 10 11 12
25 26 27 26 25 24 23 22 21 21 19 16 13 10 8 6 6 7 7 7 6 5 4 2 1 2 2 2 3 2 1 1 2 3 4 4 7 8 9 10 9 10 11 11 11 11 11 11 11 11 10 8 8 8 8 7 6 5 3 2 2 1 1 1 1 0 0 1 2 2 2 2 3 4 4 5 7 8 8 8 8 8 8 9 10
25 26 26 26 25 24 23 21 21 20 18 16 12 10 8 8 7 7 7 6 5 4 4 4 4 3 4 3 3 2 2 1 1 2 2 2 4 7 9 9 8 9 11 11 10 10 10 10 11 11 9 9 9 8 8 7 7 6 4 4 4 3 3 2 3 3 3 3 3 2 2 2 2 2 4 5 6 6 6 6 7 8 8 8 8
25 26 26 26 25 25 23 21 21 20 18 16 13 10 9 9 9 8 7 5 4 3 4 6 6 5 4 5 4 4 3 2 2 1 1 1 2 4 6 7 8 9 10 10 10 9 9 9 11 11 9 9 9 9 8 7 7 7 7 6 6 5 4 5 6 5 4 3 3 2 2 2 2 1 2 4 4 5 5 6 7 7 7 7 7
25 26 27 27 26 24 22 22 22 21 19 16 14 12 11 11 10 9 8 5 4 4 5 6 6 5 4 4 4 3 3 2 2 2 2 2 2 3 4 5 7 7 7 7 7 7 7 8 9 9 8 8 9 8 7 7 8 8 8 8 6 5 6 8 8 7 5 4 3 2 1 1 1 1 1 2 2 3 4 4 4 4 4 5 6
27 26 27 28 27 24 22 23 23 21 20 17 15 14 12 11 9 7 6 5 4 4 5 6 6 6 5 4 3 2 2 3 3 3 3 3 3 4 4 5 5 6 5 6 6 6 6 6 7 7 7 7 8 7 7 7 7 7 8 9 7 7 9 9 8 8 8 6 4 1 1 1 1 1 1 2 3 3 3 4 4 4 4 4 5
30 29 30 31 29 25 23 23 24 23 21 19 17 16 14 11 8 7 7 6 5 4 6 6 6 6 6 4 3 2 2 3 3 3 3 3 3 3 3 4 4 5 5 5 5 5 6 6 6 6 7 7 7 7 6 7 7 7 8 9 7 7 9 8 8 9 9 8 5 2 1 1 1 1 1 2 3 3 4 4 5 6 6 6 5
32 31 32 32 31 27 25 24 24 24 23 21 19 17 15 12 10 8 7 6 4 4 6 6 6 6 5 4 3 2 2 1 2 2 3 4 3 2 2 2 2 2 4 4 5 5 5 5 6 6 7 7 7 7 7 8 9 9 10 9 7 7 8 8 9 10 10 10 8 6 6 4 3 5 5 4 4 3 3 4 5 5 6 6 6
33 34 34 33 31 28 27 26 24 24 23 21 20 18 15 13 11 9 6 4 3 4 5 6 5 4 4 3 2 3 2 1 2 4 5 5 3 2 2 2 2 4 5 5 5 6 6 7 8 9 9 8 8 8 8 9 10 10 10 10 9 9 9 10 11 11 12 12 10 11 11 8 8 10 10 9 8 7 6 6 5 6 6 6 6
25 25 27 28 30 31 30 27 24 23 23 21 20 19 16 13 11 9 6 4 4 5 6 6 5 4 4 3 3 3 2 0 1 3 5 5 3 3 3 3 5 6 7 7 7 7 8 8 9 10 10 9 8 9 9 9 10 11 11 11 10 10 11 12 13 11 11 12 12 14 13 11 13 14 12 11 11 10 8 8 7 7 7 7 7
21 18 18 16 18 24 27 28 27 23 22 21 20 19 16 13 11 9 6 4 5 6 7 7 5 4 5 5 5 4 2 0 1 3 5 5 4 3 4 4 5 6 6 6 7 9 10 10 10 10 10 10 10 10 10 10 12 12 12 11 10 9 9 10 11 9 10 13 15 16 15 13 15 14 12 11 11 10 9 8 8 8 8 7 7
Wind_Direction
173 174 170 168 172 173 173 171 171 170 165 157 148 140 136 136 138 139 141 144 148 152 155 156 156 156 152 148 147 147 144 139 135 131 131 132 135 136 138 141 144 145 144 144 150 161 170 174 171 150 140 140 136 127 121 116 108 100 94 94 91 88 89 88 88 87 84 84 87 87 85 85 84 83 84 86 87 86 83 80 77 72 69 66 63
171 172 169 169 172 173 173 172 172 170 166 159 152 142 136 134 134 135 137 141 145 149 151 153 153 153 149 146 144 141 135 130 127 125 127 129 133 135 138 141 145 147 147 149 156 164 165 171 174 166 157 148 140 133 128 121 111 104 102 102 97 92 91 90 88 85 84 86 88 88 87 86 84 84 84 84 86 86 83 81 79 74 69 65 62
167 169 170 170 172 173 173 174 173 170 168 162 154 145 138 134 133 133 135 138 141 144 146 148 148 146 143 140 136 131 125 124 122 123 126 130 136 137 140 142 145 147 148 152 157 155 152 165 173 173 170 157 146 139 134 124 114 112 111 108 102 95 92 89 86 84 85 87 89 89 88 87 85 84 84 84 85 86 85 83 79 73 68 64 61
167 167 169 170 172 174 173 176 174 172 169 163 156 148 142 137 135 134 135 137 139 141 143 143 142 140 136 132 127 123 121 121 122 123 125 128 136 138 138 138 140 144 149 152 153 151 149 159 170 177 177 167 151 143 137 124 119 119 117 112 105 100 96 92 88 86 85 86 87 88 88 88 87 83 83 83 83 84 85 84 81 74 68 64 59
169 166 169 170 172 174 174 177 176 173 168 163 158 150 145 140 139 137 137 137 138 139 140 138 135 132 128 125 123 122 122 123 124 124 123 125 131 135 136 134 134 136 144 148 148 149 151 157 166 175 178 175 158 146 139 127 124 124 121 116 111 106 101 97 93 90 85 83 85 89 90 88 86 83 80 79 79 80 81 83 83 78 70 64 59
170 167 170 172 173 174 175 178 176 173 169 165 159 153 148 145 144 142 141 139 138 138 136 134 128 126 123 123 123 123 125 125 126 125 126 128 129 130 130 130 131 131 135 137 137 135 141 154 164 172 177 179 164 149 142 132 128 126 125 122 118 113 105 100 96 92 88 84 84 90 92 88 87 86 83 79 76 78 80 82 82 80 75 68 63
172 170 172 175 174 174 176 177 176 174 170 165 160 155 151 149 147 146 144 142 140 138 135 133 130 128 126 125 125 125 125 126 127 127 127 129 129 129 126 123 126 129 130 127 121 115 122 138 157 171 176 180 169 153 147 138 134 132 131 128 122 115 109 105 100 95 91 87 83 86 91 92 89 88 85 82 77 75 78 80 80 80 77 72 68
173 173 174 176 176 175 176 177 176 174 169 165 161 156 153 150 148 148 146 144 141 140 138 136 135 134 131 130 129 128 127 128 129 129 128 127 128 128 125 120 123 127 129 124 115 103 103 112 137 165 174 178 172 160 154 144 141 140 137 134 127 120 114 110 106 99 94 90 84 79 81 86 87 87 85 84 81 77 78 79 80 80 78 76 72
174 175 176 176 177 177 175 177 176 174 171 168 163 157 153 150 148 149 148 147 144 141 140 139 140 138 137 135 134 135 135 135 135 135 133 130 129 127 122 120 125 129 127 118 115 104 93 90 105 152 170 176 176 170 161 149 149 149 145 142 135 129 123 118 112 102 95 90 85 78 72 74 75 79 84 88 86 83 83 83 84 83 81 78 76
174 175 176 177 177 177 176 176 175 175 172 167 162 157 153 151 149 149 150 151 149 147 145 145 145 144 142 141 142 145 146 148 146 146 143 139 136 129 125 124 126 129 126 119 118 109 89 76 75 123 168 177 181 178 165 155 156 157 154 150 143 137 131 128 119 107 99 91 87 83 76 71 67 70 78 84 83 83 85 86 86 86 84 81 79
175 176 176 177 177 177 176 175 175 174 170 165 161 160 156 153 152 152 153 154 155 155 154 154 151 148 146 146 148 148 150 151 153 152 148 145 139 133 133 132 131 130 131 128 120 109 90 70 62 67 163 182 185 180 167 160 164 162 159 157 148 143 136 132 124 114 104 96 89 87 82 76 68 67 72 75 78 78 82 87 86 85 85 83 82
175 175 174 174 176 175 174 173 173 173 170 168 166 165 161 157 157 157 157 157 160 162 163 161 156 152 149 149 146 142 143 144 146 147 147 147 140 138 140 136 137 136 136 132 120 113 105 87 73 62 104 185 190 187 166 159 168 166 163 163 154 146 139 133 126 116 106 97 91 85 81 77 73 67 65 70 76 74 77 85 86 85 84 84 83
173 172 173 171 173 172 171 171 173 174 171 169 168 167 164 162 163 162 160 159 163 166 166 163 159 155 150 146 141 136 136 136 137 140 144 146 144 147 146 141 142 141 142 139 126 121 123 127 138 118 112 176 193 196 168 155 165 170 167 168 157 149 142 134 126 118 107 97 90 83 77 74 72 70 64 63 68 72 76 82 85 85 83 82 82
174 171 172 171 171 169 169 171 173 175 171 168 165 166 170 169 166 163 161 161 164 165 166 164 160 154 149 144 139 134 133 132 132 135 138 138 141 146 144 141 142 145 149 145 138 135 140 158 185 184 158 174 186 196 177 153 159 169 167 165 154 148 142 132 128 124 116 105 92 81 77 69 63 66 63 55 54 63 72 82 84 83 83 82 82
177 171 171 172 169 165 166 171 174 174 174 173 167 169 180 180 172 169 166 162 160 163 165 163 158 153 149 143 138 135 133 132 131 131 129 129 132 135 137 140 146 152 153 140 142 156 167 180 199 204 185 182 185 191 189 153 152 164 163 161 152 142 136 127 125 125 122 116 100 80 77 76 66 60 56 48 44 50 62 80 87 86 86 84 83
179 173 171 171 165 162 164 169 173 174 177 179 174 172 180 184 183 180 170 161 158 163 166 162 157 152 148 144 140 136 133 132 130 128 125 125 128 132 136 142 148 151 141 126 128 138 158 181 197 210 199 192 189 189 199 166 150 159 160 159 153 141 133 124 121 122 122 118 110 98 87 90 82 68 55 45 41 43 53 71 83 90 92 87 84
180 178 173 169 165 164 166 168 172 176 178 181 179 174 176 184 190 186 170 160 158 163 167 162 157 153 150 146 141 136 133 130 128 127 124 125 126 128 128 127 131 130 129 123 120 122 132 177 193 205 204 199 195 190 201 188 156 155 157 156 154 147 137 126 119 119 119 117 113 111 105 101 92 78 62 49 50 46 48 69 80 86 92 92 89
180 179 172 168 165 165 169 171 173 176 175 178 183 178 173 181 191 187 171 161 159 163 167 165 161 157 154 149 143 137 132 130 126 126 125 122 120 118 114 113 116 125 131 126 124 131 128 169 196 205 206 203 199 194 200 196 167 155 156 154 152 152 148 134 120 115 114 114 110 111 114 117 110 93 76 62 58 53 48 71 84 85 90 94 94
175 173 169 164 161 165 171 172 175 177 176 178 185 183 176 179 189 185 173 165 161 164 168 168 166 162 159 154 147 140 134 132 129 129 128 122 118 117 115 112 112 121 129 129 128 141 146 159 196 207 209 208 202 197 201 200 179 161 157 156 151 149 148 141 126 116 110 108 105 107 112 135 147 117 94 79 70 66 56 60 83 95 93 95 97
168 166 164 161 164 170 172 173 174 177 181 182 186 187 181 180 185 181 174 168 163 164 168 169 169 167 167 163 156 147 140 137 134 135 136 129 126 125 123 120 116 118 123 130 135 146 163 171 191 201 207 211 203 199 202 204 192 167 159 156 149 144 142 139 131 120 110 105 102 98 103 153 218 164 112 97 89 82 68 55 74 98 98 96 101
163 164 166 170 172 173 174 173 173 176 180 182 186 186 183 182 182 178 174 168 165 165 167 170 170 172 175 171 167 158 147 143 140 142 145 139 136 133 128 128 127 125 124 123 135 155 174 182 194 200 201 208 203 198 199 201 200 172 161 157 148 144 141 137 130 120 111 101 96 87 83 187 252 229 138 117 116 108 100 82 78 97 106 100 101
165 166 172 176 175 172 175 174 171 175 176 179 184 183 181 181 180 177 173 168 166 167 170 173 173 176 179 176 177 172 161 155 152 152 151 144 140 138 134 140 141 136 128 115 129 162 183 190 198 206 199 203 200 196 196 199 200 179 159 156 152 149 143 136 129 117 106 94 83 72 60 332 250 237 184 147 142 135 127 110 94 100 116 117 104
172 172 173 176 177 175 178 176 174 175 176 179 180 180 179 178 179 176 172 169 169 171 174 176 176 179 182 182 185 183 175 172 170 165 155 145 139 133 131 149 151 143 135 115 116 154 184 191 199 210 200 201 199 193 194 198 202 191 163 155 155 151 143 137 131 118 101 86 66 52 46 354 230 209 197 164 148 145 145 125 111 101 110 127 121
178 178 177 180 184 182 181 177 177 178 177 179 176 177 178 178 178 176 174 174 174 176 177 177 179 181 184 187 190 189 185 185 187 177 162 152 149 138 132 136 144 149 140 123 107 138 179 186 196 208 201 204 201 194 193 196 201 195 171 160 156 150 145 140 134 123 102 79 58 41 37 6 194 178 182 170 149 142 148 141 127 105 98 113 129
182 180 178 185 184 182 184 180 181 180 179 180 176 176 179 179 177 176 176 177 177 178 177 177 180 184 187 191 193 193 193 195 195 185 167 160 162 163 163 136 119 154 154 142 133 137 171 187 200 210 206 203 203 198 193 194 199 195 176 166 161 158 152 146 137 126 105 71 53 44 39 32 162 165 169 171 156 143 140 142 129 102 92 95 116
184 181 180 185 181 181 186 183 182 182 180 181 179 177 180 180 177 177 179 179 179 177 176 177 181 188 191 194 196 198 201 202 201 193 182 172 165 170 188 172 133 155 165 173 159 148 159 179 199 209 209 203 206 204 192 191 198 193 175 165 166 168 164 156 146 129 107 70 50 49 49 49 108 147 158 169 164 148 138 141 132 94 79 79 101
186 182 183 184 180 181 185 184 183 182 182 182 181 179 180 181 179 181 181 180 179 178 179 180 184 190 193 197 199 206 213 213 211 204 206 198 160 166 187 175 158 157 163 189 188 164 158 173 197 203 206 203 210 208 193 190 198 191 168 160 165 172 172 163 155 142 119 87 61 57 62 64 88 119 135 157 164 154 141 130 125 107 86 75 93
187 182 186 184 181 181 181 186 186 185 185 185 185 183 183 183 182 184 182 179 179 181 185 186 190 192 195 200 203 213 220 222 220 213 213 212 187 177 178 165 158 157 165 187 184 160 158 171 186 192 195 193 203 208 195 189 196 193 163 149 154 165 170 167 164 153 135 117 89 72 77 81 91 103 110 124 126 137 152 138 118 111 105 49 49
189 185 186 184 182 181 182 188 189 189 189 187 188 188 187 187 188 187 183 184 186 188 194 196 199 200 202 206 207 220 229 234 233 226 216 212 217 200 166 162 160 156 164 173 150 138 148 165 173 178 175 166 176 200 195 188 182 185 155 132 146 166 167 171 183 172 158 145 128 99 89 89 91 93 95 102 104 102 103 132 146 107 80 11 338
191 189 186 183 184 184 185 189 190 192 192 189 191 192 191 193 197 195 191 193 192 196 202 204 206 208 213 215 215 219 226 233 236 238 228 215 219 212 173 164 164 164 166 169 159 132 136 160 170 173 163 151 157 186 194 192 182 182 193 167 195 209 192 188 203 200 183 162 151 141 99 83 81 80 80 84 90 93 83 84 103 93 75 56 36
192 190 187 186 187 187 189 190 192 194 192 192 194 196 196 198 200 201 203 202 198 202 206 212 217 218 224 232 234 229 229 235 239 244 241 229 223 214 196 178 170 170 172 174 170 143 137 160 173 174 167 156 155 165 187 197 197 197 219 239 254 233 203 199 209 212 204 184 167 153 111 84 73 72 70 69 66 66 67 68 67 60 55 50 52
192 190 189 189 189 190 192 192 194 193 192 193 195 197 200 202 203 204 210 209 206 211 214 220 232 237 242 247 247 243 245 251 252 249 243 239 234 219 205 201 187 177 178 181 181 173 151 164 179 178 171 166 164 165 173 194 204 211 232 244 262 242 181 218 231 231 227 209 185 159 122 101 82 75 70 67 62 54 49 50 48 44 42 39 36
189 192 193 193 192 194 195 195 194 193 194 196 196 199 202 205 207 209 212 213 212 218 222 229 245 252 254 255 252 250 251 253 253 248 239 238 242 231 209 208 202 185 183 185 190 194 175 171 183 183 178 178 180 177 174 183 197 207 221 232 237 220 315 310 337 351 318 284 185 187 172 139 112 98 83 71 68 62 52 48 43 33 27 27 28
182 188 194 198 198 198 198 197 195 194 195 197 196 197 200 205 210 213 215 217 221 226 230 239 253 258 258 260 262 260 256 255 253 249 243 237 240 236 219 218 214 194 189 188 193 201 198 187 182 189 191 189 191 189 185 188 194 204 216 226 234 235 244 284 314 332 343 359 265 217 217 200 171 142 122 92 77 69 59 50 44 36 16 5 8
183 183 186 196 201 202 203 199 196 197 197 195 193 192 198 207 213 217 222 227 233 239 244 249 257 262 262 260 266 270 264 258 253 250 246 236 233 230 220 226 222 200 194 190 195 202 205 202 189 195 201 197 199 200 200 201 206 216 226 234 245 259 261 270 292 302 306 316 310 288 257 230 215 196 173 145 114 87 67 47 33 36 23 356 350
184 175 174 190 203 207 207 202 198 197 194 191 189 193 202 210 214 216 220 227 234 241 248 251 256 262 265 262 265 273 274 260 250 247 238 230 227 221 217 226 218 197 192 189 192 199 205 207 200 202 208 214 217 221 220 218 224 231 233 236 244 256 261 267 280 290 295 298 298 296 277 248 233 222 213 200 178 152 2 339 327 324 329 339 339
181 175 175 187 204 214 213 205 201 196 192 193 194 199 205 206 208 211 213 219 228 239 249 257 262 264 266 265 263 266 271 263 246 234 223 223 221 213 212 217 207 190 185 184 188 194 201 206 207 205 207 216 224 232 237 241 250 249 244 236 238 243 246 262 275 283 293 299 295 285 274 256 240 232 235 236 229 237 281 297 300 296 292 293 294
182 181 182 190 198 207 214 207 201 198 195 197 200 202 202 200 200 203 205 211 224 242 254 262 268 269 267 264 259 256 258 247 226 209 203 215 217 208 205 204 197 185 179 182 188 195 200 205 210 206 198 210 223 227 236 253 262 258 259 250 253 256 247 266 281 290 294 301 300 284 270 260 247 241 244 248 248 245 253 272 285 289 289 289 289
186 182 182 196 196 195 203 200 195 197 198 199 201 201 199 197 194 192 192 200 214 225 235 243 256 275 269 252 249 248 241 221 209 202 199 210 212 206 201 197 192 184 181 186 191 198 204 207 215 213 203 211 223 226 230 239 245 251 254 254 274 303 319 301 297 304 299 298 304 289 272 266 253 243 242 246 252 253 251 262 273 279 284 287 288
192 183 178 193 198 193 196 192 188 195 199 197 198 199 198 193 186 180 177 183 189 190 201 215 232 267 334 157 219 230 229 217 212 213 213 214 212 209 202 196 196 195 199 203 199 203 208 210 219 223 215 214 220 223 226 229 233 242 243 251 295 322 325 315 324 337 306 286 296 307 291 280 271 259 251 247 254 265 273 275 274 275 278 279 277
195 189 181 188 194 194 195 189 186 194 197 192 191 193 191 185 177 170 166 170 174 176 182 202 225 233 184 84 102 170 214 218 220 225 225 221 214 210 202 198 201 208 212 213 212 212 211 210 216 223 222 219 222 223 226 227 223 228 240 264 293 310 351 6 43 1 296 275 305 348 336 317 312 300 286 278 277 282 284 281 276 273 276 277 273
197 194 189 191 193 195 197 190 187 193 191 186 186 186 183 173 164 161 161 163 163 161 149 118 128 169 166 121 93 99 136 195 233 241 236 222 210 204 201 201 206 212 215 217 218 217 213 213 218 224 223 221 224 228 227 224 220 223 230 243 250 207 66 42 48 42 183 112 88 85 78 45 355 318 297 290 283 280 278 278 278 276 278 284 282
200 199 194 194 195 197 198 191 189 191 187 185 185 184 180 168 161 160 160 161 158 143 111 77 72 113 132 127 109 96 93 100 176 238 236 202 196 197 201 206 211 216 219 222 222 219 214 215 221 224 225 225 227 230 227 225 229 226 209 200 189 153 106 97 119 125 122 114 106 94 73 52 23 326 290 279 276 276 276 275 278 282 286 294 298
202 202 197 194 195 198 198 190 189 190 187 187 187 186 183 172 166 169 168 164 151 120 84 66 66 85 99 102 101 96 92 95 113 163 189 187 203 210 212 218 223 225 227 228 226 222 214 213 220 221 224 230 229 230 228 227 232 219 199 193 181 157 131 129 133 126 118 112 103 86 63 53 35 337 287 274 277 282 283 278 279 285 291 297 305
198 197 196 195 195 196 195 189 190 192 190 190 186 183 182 176 172 172 178 176 148 112 82 70 77 91 99 99 101 106 112 130 149 163 175 189 205 213 217 220 223 223 223 226 227 226 217 211 218 218 218 223 225 227 221 217 225 222 209 195 180 165 144 141 138 118 100 98 93 74 47 55 57 35 339 312 308 307 300 299 300 301 303 303 306
199 198 196 196 196 195 193 192 193 193 192 190 185 183 183 179 171 160 158 150 127 104 81 70 83 100 113 127 142 162 184 207 219 225 221 221 222 221 227 228 229 228 223 227 229 231 229 217 215 214 213 212 211 210 202 199 213 223 218 202 190 179 158 152 150 127 107 97 95 100 87 65 68 52 359 348 349 346 337 333 340 338 328 318 310
201 200 199 199 199 196 194 195 195 193 192 189 185 185 183 176 163 143 126 116 111 95 76 71 85 96 99 111 127 150 192 219 230 232 216 208 214 219 237 241 241 239 229 225 222 222 225 215 204 199 201 200 194 194 186 180 190 194 191 183 173 167 162 162 162 148 131 114 107 115 92 59 23 45 33 21 3 349 344 338 337 335 331 329 322
202 200 200 200 199 198 197 200 199 195 193 191 189 186 181 173 163 152 138 127 113 79 67 73 89 95 90 86 69 59 77 122 152 156 142 139 149 161 202 230 227 208 195 192 191 191 193 186 176 169 168 172 173 175 164 156 169 172 163 156 148 147 154 158 163 163 148 128 118 107 94 88 88 81 78 72 56 33 16 2 356 354 349 348 345
206 204 202 202 202 201 201 205 205 201 198 196 192 189 185 177 168 158 153 140 101 62 50 54 69 78 78 74 47 26 26 63 130 142 139 138 140 128 136 153 128 131 144 149 148 148 150 148 146 143 144 152 155 154 150 146 152 157 152 151 151 146 141 142 149 152 145 137 132 124 114 109 102 91 89 88 81 73 62 51 43 34 26 19 12
211 210 207 206 207 206 208 211 210 207 205 201 197 194 190 185 178 166 160 139 87 56 36 29 36 42 33 33 31 20 9 356 114 133 139 142 141 117 109 119 121 122 125 127 128 131 136 139 139 141 144 149 150 150 153 151 149 149 148 148 146 144 140 142 145 144 143 147 147 138 129 121 112 103 99 96 89 84 76 68 62 54 44 35 28
226 226 218 217 218 213 210 213 214 212 210 204 200 200 196 191 186 175 162 130 77 51 33 24 24 24 11 10 18 19 23 87 106 122 131 128 119 115 115 121 127 127 122 121 126 131 134 137 138 140 145 148 150 150 150 148 147 147 145 142 142 145 148 154 159 153 147 152 151 142 137 131 122 114 109 103 94 87 81 72 64 56 46 36 27
Height
1517 1519 1521 1523 1524 1526 1528 1529 1530 1531 1532 1533 1533 1534 1535 1536 1537 1538 1540 1541 1542 1543 1544 1545 1546 1546 1547 1547 1548 1548 1549 1549 1549 1550 1550 1551 1551 1552 1553 1553 1554 1554 1555 1555 1556 1556 1557 1558 1558 1558 1558 1558 1558 1558 1559 1559 1559 1560 1560 1560 1560 1560 1560 1560 1560 1559 1559 1559 1559 1559 1558 1558 1558 1557 1557 1557 1556 1556 1555 1555 1554 1553 1552 1551 1551
1515 1519 1520 1523 1524 1526 1528 1529 1530 1531 1532 1533 1534 1535 1535 1536 1537 1539 1540 1541 1542 1544 1545 1545 1546 1547 1547 1548 1549 1549 1549 1550 1550 1550 1551 1551 1552 1552 1553 1554 1554 1555 1555 1555 1556 1556 1557 1557 1558 1559 1559 1559 1559 1559 1559 1560 1560 1561 1561 1561 1561 1561 1561 1561 1561 1561 1560 1560 1560 1560 1560 1559 1559 1559 1558 1558 1557 1557 1557 1556 1555 1555 1554 1553 1552
1515 1519 1520 1522 1525 1526 1528 1529 1530 1532 1533 1534 1535 1535 1537 1537 1538 1539 1541 1542 1543 1544 1545 1546 1546 1547 1548 1549 1549 1550 1550 1550 1551 1551 1552 1552 1552 1553 1554 1554 1554 1555 1555 1556 1556 1556 1557 1557 1558 1559 1559 1559 1559 1560 1560 1560 1561 1562 1562 1562 1562 1562 1562 1562 1562 1562 1562 1562 1561 1561 1561 1561 1560 1560 1560 1559 1559 1558 1558 1557 1557 1556 1555 1554 1553
1516 1518 1520 1523 1525 1527 1528 1529 1530 1532 1533 1534 1535 1536 1538 1538 1539 1540 1541 1543 1544 1545 1545 1546 1547 1548 1548 1549 1550 1550 1551 1551 1552 1552 1552 1553 1553 1553 1554 1554 1555 1555 1555 1556 1556 1557 1557 1558 1558 1559 1559 1559 1560 1560 1561 1561 1562 1562 1563 1563 1563 1563 1563 1563 1563 1563 1562 1562 1562 1562 1562 1562 1561 1561 1561 1560 1560 1559 1559 1558 1558 1557 1556 1555 1554
1516 1518 1520 1522 1525 1527 1528 1529 1530 1532 1533 1534 1536 1537 1538 1539 1540 1541 1542 1543 1544 1545 1546 1546 1547 1548 1549 1550 1551 1551 1552 1552 1553 1553 1553 1553 1554 1554 1554 1555 1555 1555 1556 1556 1557 1557 1558 1558 1558 1559 1559 1560 1560 1561 1562 1562 1563 1563 1564 1564 1564 1564 1564 1564 1564 1563 1563 1563 1563 1563 1563 1563 1562 1562 1562 1561 1561 1560 1560 1559 1559 1558 1557 1557 1555
1515 1518 1520 1522 1524 1526 1528 1529 1530 1532 1533 1534 1536 1537 1538 1540 1541 1542 1543 1544 1545 1546 1546 1547 1547 1548 1549 1550 1551 1552 1553 1553 1553 1554 1554 1554 1554 1554 1555 1555 1555 1556 1556 1557 1557 1558 1558 1558 1559 1559 1559 1560 1561 1561 1562 1563 1563 1564 1564 1565 1565 1565 1564 1564 1564 1564 1564 1564 1564 1564 1564 1564 1563 1563 1563 1563 1562 1562 1561 1561 1560 1559 1559 1558 1557
1515 1518 1520 1522 1524 1525 1527 1529 1530 1532 1533 1535 1536 1537 1539 1540 1541 1543 1544 1544 1545 1546 1547 1547 1548 1549 1550 1551 1552 1553 1553 1554 1554 1554 1555 1555 1555 1555 1555 1556 1556 1556 1557 1557 1558 1558 1558 1559 1559 1559 1560 1560 1561 1562 1563 1564 1564 1565 1565 1565 1565 1565 1565 1565 1565 1565 1565 1565 1565 1565 1565 1565 1565 1564 1564 1564 1563 1563 1562 1562 1562 1561 1560 1559 1559
1516 1518 1520 1522 1523 1525 1527 1529 1530 1532 1533 1535 1536 1538 1539 1541 1542 1543 1544 1545 1546 1547 1547 1548 1548 1549 1551 1552 1553 1554 1554 1555 1555 1555 1555 1556 1556 1556 1556 1556 1557 1557 1557 1558 1558 1559 1559 1559 1559 1560 1560 1561 1561 1562 1563 1564 1565 1565 1566 1566 1566 1566 1566 1566 1566 1566 1566 1567 1566 1566 1566 1566 1566 1566 1565 1565 1565 1564 1564 1563 1563 1563 1562 1561 1560
1517 1518 1520 1522 1523 1526 1527 1529 1531 1532 1534 1535 1537 1538 1540 1542 1543 1544 1545 1546 1547 1548 1548 1549 1549 1550 1551 1552 1553 1554 1555 1555 1556 1556 1556 1556 1557 1557 1557 1557 1558 1558 1558 1558 1559 1559 1560 1560 1560 1560 1560 1561 1562 1562 1563 1565 1565 1566 1566 1566 1567 1567 1567 1567 1567 1567 1567 1567 1567 1567 1567 1567 1567 1567 1566 1566 1566 1565 1565 1565 1564 1564 1563 1563 1562
1517 1519 1521 1523 1524 1526 1528 1530 1531 1533 1534 1536 1537 1539 1540 1542 1543 1544 1545 1546 1547 1548 1549 1550 1550 1551 1552 1552 1554 1555 1555 1556 1556 1557 1557 1557 1557 1557 1558 1558 1558 1559 1559 1559 1560 1560 1560 1561 1561 1561 1561 1561 1562 1562 1564 1565 1565 1566 1567 1567 1567 1567 1568 1568 1568 1568 1568 1568 1568 1568 1568 1568 1568 1568 1568 1567 1567 1566 1566 1566 1565 1565 1564 1564 1564
1517 1520 1522 1523 1525 1527 1528 1530 1532 1533 1535 1537 1538 1540 1541 1542 1543 1544 1545 1547 1548 1549 1550 1550 1551 1551 1552 1553 1554 1555 1556 1556 1557 1557 1557 1558 1558 1558 1558 1558 1559 1559 1559 1560 1560 1560 1561 1561 1561 1562 1562 1562 1562 1562 1564 1565 1565 1566 1567 1567 1567 1568 1568 1568 1568 1568 1569 1569 1569 1569 1569 1569 1569 1569 1568 1568 1568 1568 1567 1567 1566 1566 1565 1565 1565
1518 1520 1522 1524 1526 1527 1529 1531 1532 1534 1536 1537 1539 1541 1542 1542 1543 1544 1545 1547 1548 1550 1551 1551 1552 1552 1553 1553 1554 1555 1556 1557 1557 1557 1558 1558 1558 1558 1558 1559 1559 1559 1560 1560 1560 1560 1561 1561 1562 1562 1562 1562 1562 1563 1564 1565 1566 1566 1567 1567 1568 1568 1569 1569 1569 1569 1569 1569 1569 1569 1569 1569 1570 1569 1569 1569 1569 1569 1569 1568 1568 1567 1567 1566 1566
1518 1520 1523 1524 1526 1528 1529 1531 1533 1535 1537 1538 1540 1543 1544 1544 1544 1544 1545 1547 1549 1550 1551 1552 1552 1553 1553 1553 1554 1555 1556 1557 1557 1558 1558 1558 1559 1559 1559 1559 1560 1560 1560 1560 1560 1561 1561 1561 1561 1562 1563 1563 1563 1563 1564 1566 1566 1566 1567 1568 1568 1569 1569 1569 1570 1570 1570 1570 1570 1570 1570 1570 1570 1570 1570 1570 1570 1570 1570 1569 1569 1569 1568 1568 1567
1518 1521 1523 1525 1526 1528 1530 1532 1534 1536 1538 1539 1540 1544 1546 1547 1546 1545 1544 1546 1549 1551 1552 1553 1553 1553 1553 1554 1555 1555 1556 1557 1557 1558 1558 1559 1559 1559 1559 1560 1560 1561 1561 1561 1561 1560 1561 1561 1561 1562 1563 1563 1563 1563 1564 1566 1566 1567 1567 1568 1569 1569 1570 1570 1570 1570 1570 1571 1570 1571 1571 1571 1571 1571 1571 1571 1571 1571 1570 1570 1570 1570 1569 1569 1569
1520 1522 1523 1525 1527 1529 1531 1532 1534 1537 1539 1540 1540 1542 1546 1548 1548 1546 1544 1545 1548 1551 1553 1554 1554 1554 1554 1555 1555 1556 1556 1557 1558 1558 1559 1559 1559 1560 1560 1560 1560 1561 1561 1561 1561 1560 1560 1561 1561 1562 1562 1563 1563 1563 1564 1566 1567 1567 1568 1568 1569 1570 1570 1571 1571 1571 1571 1571 1571 1571 1571 1572 1571 1571 1572 1571 1571 1571 1571 1571 1571 1571 1571 1570 1570
1521 1522 1524 1525 1527 1530 1532 1533 1535 1537 1540 1541 1540 1540 1544 1548 1549 1548 1545 1545 1548 1551 1553 1554 1555 1555 1556 1556 1556 1556 1557 1557 1558 1559 1559 1559 1560 1560 1560 1560 1561 1561 1561 1562 1561 1561 1560 1561 1562 1562 1562 1563 1563 1563 1564 1566 1568 1568 1568 1569 1569 1570 1570 1571 1571 1571 1572 1571 1571 1571 1571 1572 1572 1572 1572 1572 1572 1572 1572 1572 1572 1572 1572 1571 1571
1522 1523 1524 1526 1528 1530 1532 1534 1536 1538 1539 1541 1541 1540 1542 1547 1550 1550 1547 1546 1548 1551 1554 1555 1556 1556 1556 1557 1557 1557 1558 1558 1559 1559 1560 1560 1560 1560 1560 1561 1561 1561 1562 1562 1561 1561 1561 1561 1562 1562 1563 1563 1563 1564 1564 1565 1567 1568 1569 1569 1570 1570 1571 1571 1572 1572 1572 1572 1572 1572 1572 1572 1572 1572 1572 1573 1573 1573 1573 1573 1573 1572 1572 1572 1572
1522 1524 1525 1527 1529 1531 1533 1534 1535 1538 1539 1540 1542 1541 1542 1545 1549 1550 1549 1548 1549 1551 1554 1555 1556 1557 1557 1557 1558 1558 1558 1559 1559 1560 1560 1560 1560 1560 1561 1561 1561 1561 1562 1562 1562 1561 1561 1561 1562 1562 1563 1563 1563 1564 1564 1565 1567 1568 1569 1570 1570 1571 1571 1571 1572 1572 1572 1572 1572 1572 1572 1572 1572 1572 1573 1573 1573 1573 1573 1573 1573 1573 1573 1573 1573
1524 1526 1527 1528 1531 1533 1534 1535 1536 1538 1539 1540 1542 1542 1542 1544 1548 1550 1549 1549 1549 1551 1553 1555 1556 1557 1557 1557 1558 1558 1558 1559 1559 1560 1560 1561 1561 1561 1561 1561 1561 1561 1562 1562 1562 1561 1561 1562 1562 1563 1563 1563 1564 1564 1564 1564 1566 1567 1569 1570 1571 1571 1572 1572 1572 1572 1572 1572 1572 1572 1572 1572 1572 1572 1573 1573 1573 1573 1573 1573 1573 1574 1574 1574 1574
1525 1527 1528 1530 1532 1533 1534 1536 1537 1539 1540 1541 1542 1543 1543 1545 1548 1550 1549 1549 1550 1551 1553 1554 1556 1556 1557 1557 1557 1558 1558 1559 1559 1560 1560 1560 1561 1561 1561 1561 1561 1561 1562 1562 1562 1562 1562 1562 1563 1563 1563 1563 1564 1564 1565 1565 1566 1567 1568 1569 1571 1572 1572 1573 1573 1572 1572 1572 1572 1572 1572 1572 1572 1572 1573 1573 1573 1573 1573 1573 1574 1574 1574 1574 1574
1526 1527 1529 1530 1531 1532 1534 1536 1537 1538 1540 1541 1543 1544 1544 1546 1548 1549 1549 1549 1550 1551 1552 1554 1555 1556 1557 1557 1557 1558 1558 1559 1559 1559 1560 1560 1560 1561 1561 1561 1561 1561 1561 1562 1562 1562 1562 1563 1563 1563 1563 1563 1564 1564 1565 1565 1566 1568 1569 1570 1571 1572 1573 1573 1573 1573 1573 1573 1573 1572 1572 1572 1572 1572 1573 1573 1573 1573 1573 1573 1574 1574 1574 1574 1575
1525 1527 1529 1530 1531 1532 1533 1535 1537 1538 1539 1541 1543 1544 1545 1546 1548 1549 1549 1549 1550 1551 1552 1553 1554 1555 1556 1556 1557 1557 1558 1558 1559 1559 1559 1560 1560 1560 1561 1561 1561 1561 1561 1561 1562 1562 1563 1563 1564 1563 1563 1563 1564 1564 1565 1566 1567 1568 1569 1570 1571 1572 1573 1573 1573 1573 1573 1573 1573 1573 1572 1572 1572 1573 1573 1573 1573 1573 1573 1573 1574 1574 1574 1575 1575
1522 1527 1531 1532 1532 1533 1533 1534 1536 1537 1538 1540 1542 1543 1545 1546 1548 1549 1549 1550 1550 1551 1552 1553 1554 1555 1555 1556 1556 1557 1557 1558 1558 1559 1559 1560 1560 1560 1560 1561 1561 1561 1561 1561 1562 1563 1563 1564 1564 1563 1564 1564 1564 1565 1565 1566 1567 1568 1570 1571 1571 1572 1573 1573 1574 1574 1574 1574 1573 1573 1573 1572 1572 1573 1573 1573 1574 1574 1574 1574 1574 1574 1574 1575 1575
1519 1524 1529 1531 1531 1533 1534 1535 1536 1537 1538 1540 1541 1543 1544 1546 1548 1549 1549 1550 1550 1551 1551 1552 1553 1554 1555 1555 1556 1556 1557 1557 1558 1558 1559 1559 1560 1560 1560 1560 1561 1561 1561 1562 1562 1563 1563 1564 1564 1564 1564 1564 1564 1565 1565 1566 1567 1569 1570 1571 1572 1572 1573 1573 1574 1574 1574 1574 1574 1573 1573 1573 1572 1573 1573 1573 1574 1574 1574 1574 1574 1574 1574 1575 1575
1518 1522 1526 1527 1529 1532 1534 1535 1536 1537 1538 1540 1541 1542 1544 1546 1547 1549 1549 1550 1550 1550 1551 1552 1553 1553 1554 1555 1555 1556 1556 1557 1557 1558 1558 1558 1559 1559 1559 1559 1560 1560 1561 1562 1562 1563 1563 1564 1564 1564 1564 1564 1565 1565 1566 1567 1568 1569 1570 1571 1572 1573 1573 1574 1574 1574 1575 1574 1574 1574 1573 1573 1573 1573 1573 1573 1574 1574 1574 1574 1574 1575 1575 1575 1575
1518 1521 1524 1525 1528 1531 1534 1535 1537 1538 1539 1540 1541 1543 1544 1545 1547 1548 1548 1549 1550 1550 1551 1551 1552 1553 1554 1554 1554 1555 1555 1556 1557 1557 1557 1557 1557 1557 1558 1558 1559 1560 1560 1561 1562 1563 1563 1564 1564 1564 1564 1564 1565 1565 1566 1567 1569 1570 1570 1571 1572 1573 1573 1574 1574 1575 1575 1575 1574 1574 1574 1573 1573 1573 1573 1574 1574 1574 1574 1574 1574 1575 1575 1575 1576
1519 1522 1523 1525 1529 1531 1534 1536 1537 1539 1540 1541 1542 1543 1545 1546 1547 1547 1548 1549 1550 1550 1551 1551 1552 1553 1553 1553 1554 1554 1555 1556 1556 1556 1556 1556 1556 1556 1557 1557 1558 1559 1560 1561 1561 1562 1563 1563 1564 1564 1564 1565 1565 1566 1567 1568 1569 1570 1570 1571 1572 1573 1574 1574 1575 1575 1575 1575 1575 1574 1574 1574 1574 1573 1574 1574 1574 1574 1574 1574 1575 1575 1575 1575 1576
1521 1523 1524 1526 1530 1532 1534 1537 1538 1539 1540 1541 1543 1543 1544 1546 1546 1547 1548 1549 1549 1550 1551 1551 1552 1552 1553 1553 1554 1554 1555 1555 1556 1556 1556 1556 1556 1556 1556 1556 1557 1558 1559 1560 1561 1561 1562 1563 1564 1564 1565 1565 1565 1566 1567 1568 1570 1570 1571 1572 1573 1574 1574 1575 1575 1575 1575 1575 1575 1575 1575 1574 1574 1574 1574 1574 1574 1574 1574 1575 1575 1575 1575 1575 1575
1522 1524 1526 1528 1530 1532 1534 1536 1538 1539 1540 1542 1543 1544 1544 1546 1546 1547 1548 1549 1549 1549 1550 1550 1551 1552 1553 1553 1554 1555 1555 1555 1555 1556 1556 1556 1556 1556 1556 1556 1557 1557 1558 1559 1560 1561 1562 1563 1563 1564 1565 1565 1566 1567 1568 1569 1570 1571 1571 1572 1573 1574 1575 1575 1575 1575 1575 1575 1575 1575 1575 1575 1575 1574 1574 1574 1574 1575 1575 1575 1575 1575 1575 1575 1575
1523 1525 1527 1528 1530 1532 1534 1536 1538 1539 1541 1542 1543 1544 1545 1546 1546 1547 1548 1548 1549 1549 1549 1550 1550 1551 1553 1554 1554 1554 1554 1554 1555 1556 1557 1557 1556 1556 1556 1556 1556 1557 1557 1558 1559 1560 1562 1562 1563 1564 1565 1566 1567 1567 1568 1570 1571 1571 1572 1572 1573 1574 1574 1575 1575 1575 1575 1575 1576 1576 1576 1576 1576 1576 1575 1575 1575 1575 1575 1575 1575 1575 1575 1575 1575
1523 1525 1527 1529 1531 1532 1534 1536 1538 1540 1541 1542 1543 1544 1545 1546 1546 1547 1547 1548 1548 1548 1549 1549 1550 1551 1552 1553 1554 1553 1553 1553 1554 1556 1557 1558 1558 1557 1557 1556 1556 1556 1557 1558 1559 1560 1561 1562 1563 1564 1565 1566 1567 1568 1569 1570 1571 1572 1572 1573 1573 1574 1574 1574 1574 1575 1575 1575 1576 1576 1576 1576 1576 1576 1576 1576 1576 1576 1576 1576 1576 1576 1576 1575 1575
1523 1525 1527 1529 1531 1533 1535 1537 1539 1540 1541 1542 1543 1544 1545 1545 1546 1546 1546 1547 1547 1548 1548 1549 1549 1550 1551 1552 1552 1553 1553 1553 1554 1556 1557 1558 1559 1558 1556 1556 1555 1556 1556 1557 1559 1560 1561 1562 1563 1564 1566 1567 1568 1568 1569 1570 1571 1572 1572 1572 1573 1573 1574 1574 1575 1575 1575 1576 1576 1576 1576 1576 1576 1576 1577 1576 1576 1576 1576 1576 1576 1576 1576 1576 1576
1523 1525 1527 1530 1531 1533 1535 1537 1539 1540 1541 1542 1543 1544 1544 1545 1545 1545 1546 1546 1547 1547 1548 1548 1548 1549 1550 1550 1550 1551 1552 1552 1553 1554 1555 1556 1559 1558 1556 1556 1555 1555 1556 1557 1558 1560 1561 1562 1563 1565 1566 1566 1567 1568 1569 1570 1571 1571 1572 1572 1573 1573 1574 1574 1575 1575 1575 1577 1577 1577 1576 1576 1576 1576 1576 1576 1576 1577 1577 1577 1577 1577 1577 1577 1577
1522 1525 1527 1530 1531 1534 1536 1537 1539 1540 1541 1542 1543 1543 1544 1544 1545 1545 1545 1546 1546 1547 1547 1547 1547 1547 1548 1548 1548 1549 1550 1551 1551 1552 1553 1554 1557 1558 1557 1556 1555 1555 1556 1557 1558 1560 1561 1562 1563 1564 1565 1565 1566 1567 1569 1570 1570 1571 1572 1572 1573 1573 1574 1574 1575 1575 1576 1577 1577 1577 1577 1576 1576 1576 1576 1576 1576 1577 1577 1577 1577 1577 1577 1577 1577
1522 1524 1527 1530 1532 1534 1536 1538 1538 1540 1540 1541 1542 1543 1543 1543 1544 1544 1545 1545 1546 1546 1546 1547 1546 1546 1547 1547 1547 1548 1549 1549 1549 1550 1551 1552 1554 1557 1557 1556 1555 1555 1555 1556 1558 1559 1561 1562 1563 1564 1565 1565 1566 1568 1569 1569 1570 1571 1571 1572 1572 1573 1573 1574 1575 1575 1576 1576 1577 1577 1577 1577 1577 1576 1576 1576 1576 1577 1577 1577 1577 1577 1577 1577 1577
1522 1525 1527 1531 1533 1533 1535 1537 1539 1539 1540 1541 1541 1542 1542 1543 1543 1544 1544 1545 1545 1545 1545 1546 1546 1546 1546 1546 1546 1547 1547 1548 1548 1548 1550 1551 1553 1556 1556 1555 1555 1555 1555 1556 1558 1559 1560 1562 1563 1564 1565 1565 1566 1567 1568 1569 1570 1570 1571 1571 1572 1572 1573 1574 1574 1575 1575 1576 1576 1576 1576 1577 1577 1576 1576 1576 1576 1576 1577 1577 1577 1577 1577 1577 1577
1522 1524 1526 1530 1533 1535 1535 1536 1538 1539 1539 1540 1541 1541 1541 1542 1542 1543 1543 1544 1544 1544 1545 1545 1545 1545 1545 1545 1545 1546 1546 1546 1547 1548 1549 1551 1552 1554 1555 1554 1554 1554 1555 1556 1557 1559 1560 1561 1562 1564 1565 1565 1566 1567 1567 1568 1569 1569 1570 1570 1571 1572 1573 1573 1574 1574 1575 1575 1575 1575 1576 1576 1576 1576 1576 1576 1575 1576 1576 1577 1577 1577 1577 1577 1577
1521 1523 1525 1528 1531 1535 1537 1536 1537 1538 1539 1539 1540 1540 1540 1541 1541 1542 1542 1543 1543 1544 1544 1544 1544 1544 1543 1543 1544 1544 1545 1546 1546 1547 1549 1550 1551 1552 1553 1553 1553 1554 1555 1556 1557 1558 1560 1561 1562 1564 1565 1565 1566 1567 1567 1568 1568 1569 1569 1570 1570 1571 1572 1573 1573 1573 1574 1574 1574 1574 1574 1575 1575 1575 1575 1576 1576 1575 1575 1576 1577 1577 1577 1577 1577
1520 1521 1524 1528 1529 1532 1534 1534 1535 1537 1538 1538 1539 1539 1540 1540 1541 1541 1541 1542 1543 1543 1543 1543 1543 1543 1542 1542 1543 1543 1544 1545 1546 1547 1548 1549 1550 1551 1551 1552 1552 1553 1554 1556 1557 1558 1559 1560 1561 1563 1565 1565 1565 1566 1567 1567 1568 1568 1569 1569 1570 1570 1571 1572 1572 1572 1573 1573 1573 1573 1573 1574 1574 1574 1574 1575 1575 1575 1575 1575 1576 1576 1576 1576 1576
1519 1520 1522 1525 1526 1528 1530 1531 1533 1535 1536 1537 1538 1538 1539 1539 1540 1540 1541 1541 1542 1543 1543 1542 1542 1542 1542 1542 1542 1543 1544 1544 1545 1546 1547 1548 1548 1549 1550 1551 1552 1553 1554 1555 1556 1557 1558 1559 1560 1562 1564 1565 1565 1565 1566 1567 1567 1568 1568 1569 1569 1570 1570 1571 1571 1571 1572 1572 1572 1573 1573 1573 1573 1573 1573 1574 1574 1574 1574 1574 1575 1575 1575 1575 1575
1519 1520 1520 1521 1524 1526 1528 1529 1531 1533 1535 1536 1537 1537 1538 1539 1539 1540 1540 1541 1541 1542 1542 1542 1541 1541 1541 1541 1542 1542 1543 1544 1544 1545 1546 1546 1547 1549 1550 1551 1552 1553 1554 1555 1556 1557 1557 1558 1560 1561 1562 1563 1564 1565 1565 1566 1567 1567 1568 1568 1569 1569 1570 1570 1570 1571 1571 1571 1571 1572 1572 1572 1572 1572 1572 1572 1572 1572 1573 1573 1573 1574 1574 1574 1574
1518 1518 1519 1520 1523 1525 1528 1529 1530 1532 1534 1535 1536 1537 1538 1538 1539 1539 1540 1540 1541 1542 1542 1541 1541 1541 1541 1541 1542 1542 1543 1544 1544 1545 1545 1546 1547 1548 1549 1550 1552 1553 1554 1555 1555 1556 1557 1558 1559 1560 1561 1562 1563 1563 1564 1565 1566 1566 1567 1568 1568 1569 1569 1570 1570 1571 1571 1570 1571 1571 1571 1571 1572 1572 1571 1571 1572 1572 1572 1572 1572 1573 1573 1573 1573
1516 1517 1518 1520 1522 1524 1526 1527 1529 1531 1532 1534 1535 1536 1537 1537 1538 1539 1540 1540 1541 1541 1541 1541 1540 1540 1541 1541 1542 1542 1543 1544 1544 1545 1545 1546 1547 1548 1549 1550 1552 1552 1553 1554 1555 1556 1557 1557 1558 1559 1560 1561 1562 1563 1563 1564 1565 1565 1566 1567 1567 1568 1569 1570 1570 1570 1570 1570 1570 1571 1571 1571 1571 1571 1571 1572 1572 1572 1571 1572 1572 1572 1572 1572 1572
1514 1516 1517 1518 1520 1522 1524 1526 1527 1529 1531 1533 1534 1535 1536 1537 1538 1539 1540 1540 1541 1541 1541 1541 1540 1540 1540 1541 1542 1543 1543 1544 1545 1545 1546 1547 1548 1549 1549 1550 1551 1552 1553 1554 1554 1555 1556 1557 1558 1558 1559 1560 1561 1562 1562 1563 1564 1564 1565 1566 1567 1568 1569 1569 1570 1570 1570 1570 1570 1571 1571 1571 1571 1571 1571 1571 1571 1571 1571 1571 1571 1572 1572 1571 1572
1512 1514 1515 1517 1518 1520 1522 1524 1526 1528 1530 1532 1533 1534 1535 1536 1538 1539 1540 1540 1541 1541 1541 1540 1540 1540 1541 1542 1542 1543 1544 1545 1546 1546 1547 1547 1548 1549 1550 1550 1551 1552 1552 1553 1554 1555 1555 1556 1557 1558 1559 1560 1560 1561 1562 1562 1563 1563 1564 1565 1566 1567 1568 1569 1569 1570 1570 1570 1570 1571 1571 1571 1571 1571 1571 1571 1571 1570 1570 1571 1571 1571 1571 1571 1571
1510 1512 1513 1515 1516 1518 1520 1522 1524 1526 1529 1530 1532 1533 1535 1536 1538 1539 1539 1540 1540 1540 1540 1540 1540 1540 1541 1542 1543 1544 1544 1545 1546 1547 1547 1548 1548 1549 1549 1550 1551 1551 1552 1553 1553 1554 1555 1556 1556 1557 1558 1559 1560 1560 1561 1562 1562 1562 1563 1564 1565 1566 1567 1568 1568 1569 1570 1571 1571 1571 1570 1570 1570 1570 1570 1570 1570 1570 1570 1570 1571 1571 1571 1570 1570
1508 1509 1510 1512 1513 1515 1517 1519 1522 1525 1527 1529 1531 1532 1534 1536 1537 1538 1539 1539 1539 1539 1540 1540 1540 1540 1541 1542 1543 1544 1545 1545 1546 1546 1547 1548 1548 1549 1549 1550 1550 1551 1552 1552 1553 1554 1555 1555 1556 1557 1558 1558 1559 1559 1560 1561 1561 1561 1562 1564 1564 1565 1566 1567 1567 1568 1570 1571 1571 1570 1570 1570 1570 1570 1570 1570 1570 1570 1570 1570 1570 1570 1570 1570 1570
1504 1505 1506 1508 1510 1512 1514 1517 1520 1523 1526 1528 1530 1532 1533 1535 1536 1537 1537 1538 1538 1538 1538 1539 1540 1540 1541 1542 1543 1544 1544 1545 1546 1546 1547 1548 1549 1549 1549 1550 1550 1551 1551 1552 1553 1553 1554 1555 1556 1556 1557 1558 1558 1559 1559 1560 1560 1561 1562 1563 1564 1565 1565 1566 1566 1567 1569 1570 1571 1570 1570 1570 1569 1569 1570 1570 1570 1570 1570 1570 1570 1570 1569 1569 1569
1502 1503 1505 1507 1509 1511 1514 1517 1520 1522 1524 1527 1529 1531 1533 1534 1535 1536 1536 1536 1537 1537 1538 1538 1539 1540 1541 1542 1543 1544 1545 1545 1546 1547 1547 1548 1549 1549 1550 1550 1550 1551 1551 1552 1553 1553 1554 1555 1555 1556 1557 1557 1558 1558 1559 1559 1560 1561 1562 1563 1563 1564 1565 1565 1566 1567 1568 1569 1570 1570 1570 1570 1569 1569 1570 1570 1570 1570 1570 1570 1570 1570 1569 1569 1569
1500 1502 1505 1509 1511 1513 1515 1517 1519 1522 1524 1527 1529 1530 1532 1534 1535 1535 1536 1536 1536 1537 1537 1538 1539 1540 1541 1542 1543 1544 1545 1545 1546 1547 1547 1548 1549 1550 1550 1550 1551 1551 1552 1553 1553 1554 1554 1555 1555 1556 1556 1557 1558 1558 1559 1559 1560 1561 1562 1563 1563 1564 1564 1565 1566 1567 1567 1568 1568 1569 1570 1570 1569 1570 1570 1570 1570 1570 1570 1570 1570 1570 1569 1569 1569
1501 1506 1509 1511 1513 1514 1515 1517 1518 1521 1524 1526 1529 1530 1532 1533 1534 1535 1536 1536 1537 1537 1538 1538 1539 1540 1541 1542 1543 1544 1545 1545 1546 1547 1548 1548 1549 1550 1550 1551 1551 1552 1552 1553 1554 1554 1555 1555 1555 1556 1556 1557 1557 1558 1559 1559 1560 1561 1562 1562 1564 1564 1565 1565 1566 1566 1567 1567 1567 1568 1569 1569 1569 1570 1570 1571 1571 1571 1570 1570 1570 1570 1569 1569 1569